Regional Weather Roundup
Issued by NWS Green Bay, WI

Home | Current Version | Previous Version | Text Only | Print | Product List | Glossary On
Versions: 1 2 3 4 5 6 7 8 9 10 11 12 13 14 15 16 17 18 19 20 21 22 23 24 25 26 27 28 29 30 31 32 33 34 35 36 37 38 39 40 41 42 43 44 45 46 47 48 49 50
000
ASUS43 KGRB 011910
RWRGRB

NORTH-CENTRAL AND NORTHEAST WISCONSIN REGIONAL WEATHER ROUNDUP
NATIONAL WEATHER SERVICE GREEN BAY WI
200 PM CDT WED OCT 01 2014

WIZ005-009-010>012-018-019-012000-
NORTH CENTRAL WISCONSIN

CITY           SKY/WX    TMP DP  RH WIND       PRES   REMARKS
IRONWOOD       NOT AVBL
MANITOWISH WTR CLOUDY    53  46  78 SE8       29.87F
ARBOR VITAE    PTSUNNY   57  47  71 SE10      29.87F
EAGLE RIVER    MOSUNNY   57  45  64 SE8G16    29.89F
LAND O LAKES   MOSUNNY   58  46  64 S9        29.90F
RHINELANDER    PTSUNNY   55  46  71 SE14G25   29.90F
PHILLIPS       RAIN      51  48  90 SE6       29.86F
ANTIGO         CLOUDY    56  49  80 SE14      29.92F
TOMAHAWK       CLOUDY    56  47  72 SE7       29.89F
MERRILL        CLOUDY    58  49  72 SE10      29.89F
$$

WIZ013-073-012000-
NORTHEAST WISCONSIN

CITY           SKY/WX    TMP DP  RH WIND       PRES   REMARKS
IRON MOUNTAIN  CLOUDY    55  51  86 SE12      29.93F
MARINETTE      NOT AVBL
OCONTO         CLOUDY    56  54  92 SE10      29.96F
$$

WIZ017-030-035>037-045-012000-
CENTRAL WISCONSIN

CITY           SKY/WX    TMP DP  RH WIND       PRES   REMARKS
MEDFORD        DRIZZLE   52  49  90 SE6       29.87F
WAUSAU         CLOUDY    60  49  66 SE13      29.88S
MOSINEE        PTSUNNY   59  52  77 SE9G18    29.90F
MARSHFIELD     LGT RAIN  59  49  69 SE13      29.88S
WISC RAPIDS    CLOUDY    61  50  67 SE9       29.89F
STEVENS POINT  CLOUDY    59  48  66 SE10G16   29.90F
WAUPACA        MOSUNNY   67  51  57 SE12G20   29.91F
SHAWANO        CLOUDY    63  52  67 SE9       29.93F
CLINTONVILLE   PTSUNNY   63  50  63 SE9G17    29.92F
$$

WIZ038-039-048-051-012000-
FOX VALLEY

CITY           SKY/WX    TMP DP  RH WIND       PRES   REMARKS
NWS GREEN BAY  CLOUDY    62  52  69 SE14      29.95F
APPLETON       PTSUNNY   63  52  67 S14       29.93F
OSHKOSH        SUNNY     65  52  62 SE13G21   29.91F
FOND DU LAC    SUNNY     65  51  60 SE15G22   29.91F
$$

WIZ022-050-052-012000-
EAST CENTRAL WISCONSIN

CITY           SKY/WX    TMP DP  RH WIND       PRES   REMARKS
STURGEON BAY   NOT AVBL
MANITOWOC      NOT AVBL
SHEBOYGAN      CLOUDY    59  51  75 SE12G22   29.97F
$$

LMZ563-521-522-541>543-012000-
LAKESHORE

STATION/POSITION TIME  TEMP    WIND        PRES    VSBY  WAVE
                       AIR SEA DIR/SP/G                  HT/PER
                 (UTC) (F)     (DEG/KT/KT) (MB)    (MI)  (FT/S)
SHEBOYGAN LKSHOR 1900   56 55  140/ 18/ 21 1015.4F
KEWAUNEE LKSHORE 1900   55     150/ 12/ 16 1014.4F
TWO RIVERS CG    1800   55                 1015.5      6   2
NORTHPORT PIER   1900   55     150/  8/ 12 1015.6F
N MID LAKE BUOY  1900   55 58  180/ 10/ 12 1016.2F         1/ 3
SISTER BAY LKSHO 1800          170/ 14/ 21   N/A
STURGEON BAY CG  1800   56 55  140/ 11     1017.2      6   1
CHAMBERS ISLAND  1900   60     130/  4/ 10 1015.2S
MENOMINEE LKSHOR 1900   56     160/  9/ 14 1015.5F
$$


USA.gov is the U.S. government's official web portal to all federal, state and local government web resources and services.